Regional Weather Roundup
Issued by NWS Little Rock, AR

Home | Current Version | Previous Version | Graphics & Text | Print | Product List | Glossary On
Versions: 1 2 3 4 5 6 7 8 9 10 11 12 13 14 15 16 17 18 19 20 21 22 23 24 25 26 27 28 29 30 31 32 33 34 35 36 37 38 39 40 41 42 43 44 45 46 47 48 49 50
000
ASUS44 KLZK 271805
RWRLZK

WEATHER ROUNDUP FOR ARKANSAS
NATIONAL WEATHER SERVICE LITTLE ROCK AR
100 PM CDT WED AUG 27 2014

NOTE: "FAIR" INDICATES FEW OR NO CLOUDS BELOW 12,000 FEET WITH NO
SIGNIFICANT WEATHER AND/OR OBSTRUCTIONS TO VISIBILITY.

ARZ001-003-010-029-271900-
NORTHWEST ARKANSAS

CITY           SKY/WX    TMP DP  RH WIND       PRES   REMARKS
FAYETTEVILLE   FAIR      90  67  46 SE6       30.12F HX  93
6HR MIN TEMP:  67; 6HR MAX TEMP:  91;

FORT SMITH     FAIR      93  70  46 MISG      30.07F HX  99
6HR MIN TEMP:  74; 6HR MAX TEMP:  94;

HARRISON       PTSUNNY   88  67  49 CALM      30.13F HX  91
6HR MIN TEMP:  69; 6HR MAX TEMP:  90;

BENTONVILLE    FAIR      91  70  49 E7        30.14F HX  97
6HR MIN TEMP:  72; 6HR MAX TEMP:  91;

ROGERS         PTSUNNY   87  67  51 N6        30.13F HX  90
6HR MIN TEMP:  72; 6HR MAX TEMP:  90;

HIGHFILL       FAIR      92  66  42 NE6       30.12F HX  94
6HR MIN TEMP:  68; 6HR MAX TEMP:  92;

SPRINGDALE     MOSUNNY   90  66  45 NW9       30.14F HX  92
$$

ARZ004-005-016-271900-
NORTH CENTRAL ARKANSAS

CITY           SKY/WX    TMP DP  RH WIND       PRES   REMARKS
BATESVILLE     FAIR      91  70  49 E9        30.08S HX  97
6HR MIN TEMP:  72; 6HR MAX TEMP:  93;

FLIPPIN        FAIR      93  66  40 SE7       30.10F HX  96
6HR MIN TEMP:  70; 6HR MAX TEMP:  93;

MTN HOME       PTSUNNY   94  69  44 S7        30.09F HX  99
6HR MIN TEMP:  71; 6HR MAX TEMP:  94;

$$

ARZ040-041-271900-
WEST CENTRAL ARKANSAS

CITY           SKY/WX    TMP DP  RH WIND       PRES   REMARKS
MENA           FAIR      90  70  51 CALM      30.12F HX  95
MOUNT IDA      FAIR      88  70  55 CALM      30.09F HX  93
6HR MIN TEMP:  70; 6HR MAX TEMP:  89;

$$

ARZ009-017-025-026-028-271900-
NORTHEAST ARKANSAS

CITY           SKY/WX    TMP DP  RH WIND       PRES   REMARKS
CORNING        LGT RAIN  90  73  58 CALM      30.08F HX  98
JONESBORO      FAIR      89  70  53 VRB3      30.08F HX  94
6HR MIN TEMP:  73; 6HR MAX TEMP:  92;

NEWPORT        FAIR      90  72  55 E7        30.09F HX  97
6HR MIN TEMP:  75; 6HR MAX TEMP:  92;

WALNUT RIDGE   FAIR      90  66  45 CALM      30.07F HX  92
6HR MIN TEMP:  72; 6HR MAX TEMP:  90;

BLYTHEVILLE    PTSUNNY   90  74  59 VRB3      30.09F HX  99
6HR MIN TEMP:  72; 6HR MAX TEMP:  90;

$$

ARZ022-023-033-042-044-271900-
CENTRAL ARKANSAS

CITY           SKY/WX    TMP DP  RH WIND       PRES   REMARKS
LITTLE ROCK    PTSUNNY   90  70  51 VRB7      30.07F HX  95
6HR MIN TEMP:  77; 6HR MAX TEMP:  90;

N LITTLE ROCK  PTSUNNY   87  74  64 NE8       30.07F HX  95
6HR MIN TEMP:  77; 6HR MAX TEMP:  88;

JACKSONVILLE   FAIR      91  72  54 VRB3      30.08F HX  98
6HR MIN TEMP:  74; 6HR MAX TEMP:  91;

SEARCY         FAIR      92  71  50 W7        30.09F HX  98
6HR MIN TEMP:  73; 6HR MAX TEMP:  91;

HOT SPRINGS    FAIR      88  68  51 VRB7      30.09F HX  91
6HR MIN TEMP:  73; 6HR MAX TEMP:  89;

RUSSELLVILLE   FAIR      90  71  53 CALM      30.08F HX  96
6HR MIN TEMP:  73; 6HR MAX TEMP:  92;

CLINTON        FAIR      91  73  55 S5        30.08F HAZE    HX 100
$$

ARZ036-271900-
EAST ARKANSAS

CITY           SKY/WX    TMP DP  RH WIND       PRES   REMARKS
WEST MEMPHIS   FAIR      89  69  51 E9        30.07F HX  93
6HR MIN TEMP:  72; 6HR MAX TEMP:  90;

$$

ARZ050-053-066-070-073-271900-
SOUTHWEST ARKANSAS

CITY           SKY/WX    TMP DP  RH WIND       PRES   REMARKS
ARKADELPHIA    FAIR      89  72  57 E6        30.07F HX  96
6HR MIN TEMP:  70; 6HR MAX TEMP:  90;

CAMDEN         FAIR      91  63  38 E3        30.06F HX  92
TEXARKANA      PTSUNNY   88  66  48 NE6       30.07F HX  90
6HR MIN TEMP:  70; 6HR MAX TEMP:  91;

EL DORADO      FAIR      88  63  43 SE5       30.07F HX  89
6HR MIN TEMP:  68; 6HR MAX TEMP:  89;

DE QUEEN       FAIR      90  70  51 SE8       30.06F HX  95
6HR MIN TEMP:  70; 6HR MAX TEMP:  90;

$$

ARZ056-057-069-271900-
SOUTHEAST ARKANSAS

CITY           SKY/WX    TMP DP  RH WIND       PRES   REMARKS
PINE BLUFF     FAIR      88  71  57 NE7       30.07F HX  94
6HR MIN TEMP:  71; 6HR MAX TEMP:  89;

STUTTGART      FAIR      88  72  58 N5        30.09F HX  94
6HR MIN TEMP:  73; 6HR MAX TEMP:  88;

MONTICELLO     FAIR      91  63  39 NE5       30.07F HX  92
6HR MIN TEMP:  69; 6HR MAX TEMP:  91;


$$




USA.gov is the U.S. government's official web portal to all federal, state and local government web resources and services.